Granite Falls, MN

3:23 PM CST on December 09, 2019 (GMT -0600)
Granite Falls

Weather History for KGDB - October, 2019

Change the Weather History Date:

Thursday, October 3, 2019

  Actual Average (KMVE) Record (KMVE)
Temperature  
Mean Temperature 45 °F -  
Max Temperature 47 °F 67 °F 91 °F (1953)
Min Temperature 43 °F 41 °F 24 °F (1989)
Degree Days  
Heating Degree Days 20    
Moisture  
Dew Point 40 °F    
Average Humidity 84    
Maximum Humidity 97    
Minimum Humidity 75    
Precipitation  
Precipitation 0.00 in - - ()
Sea Level Pressure  
Sea Level Pressure 30.27 in    
Wind  
Wind Speed 9 mph (WNW)    
Max Wind Speed 15 mph    
Max Gust Speed 24 mph    
Visibility 9 miles    
Events      
Averages and records for this station are not official NWS values.
T = Trace of Precipitation, MM = Missing Value Source: NWS Daily Summary

Daily Weather History Graph

Daily Weather History Graph

Search for Another Location

Airport or City:

Astronomy

Oct. 03, 2019 Rise Set
Actual Time 7:22 AM CDT 6:59 PM CDT
Civil Twilight 6:53 AM CDT 7:28 PM CDT
Nautical Twilight 6:19 AM CDT 8:02 PM CDT
Astronomical Twilight 5:45 AM CDT 8:36 PM CDT
Moon 1:07 PM CDT (10/3) 10:26 PM CDT (10/3)
Length of Visible Light 12h 35m
Length of Day
11h 37m
Waxing Crescent, 30% of the Moon is Illuminated
Oct 3
Waxing Crescent
Oct 5
First Quarter
Oct 13
Full
Oct 21
Last Quarter
Oct 27
New

Hourly Weather History & Observations

Time (CDT) Temp. Windchill Dew Point Humidity Pressure Visibility Wind Dir Wind Speed Gust Speed Precip Events Conditions
12:16 AM 47.3 °F - 46.4 °F 97% 30.05 in 2.0 mi NW 5.8 mph - N/A   Overcast
12:35 AM 47.3 °F - 46.4 °F 97% 30.05 in 3.0 mi NW 4.6 mph - N/A   Overcast
12:55 AM 47.3 °F - 46.4 °F 97% 30.06 in 2.5 mi WNW 8.1 mph - N/A   Overcast
12:56 AM 47.3 °F - 46.4 °F 97% 30.06 in 2.5 mi WNW 8.1 mph - N/A   Overcast
1:15 AM 47.3 °F - 46.4 °F 97% 30.07 in 4.0 mi West 9.2 mph - N/A   Overcast
1:19 AM 47.3 °F - 46.4 °F 97% 30.07 in 5.0 mi West 9.2 mph - N/A   Overcast
1:38 AM 47.3 °F - 46.4 °F 97% 30.07 in 4.0 mi West 5.8 mph - N/A   Overcast
1:55 AM 47.3 °F - 46.4 °F 97% 30.08 in 3.0 mi WNW 9.2 mph - N/A   Overcast
2:15 AM 46.8 °F - 45.9 °F 97% 30.09 in 4.0 mi West 8.1 mph 16.1 mph N/A   Overcast
2:35 AM 46.6 °F - 45.7 °F 97% 30.10 in 5.0 mi West 8.1 mph - N/A   Overcast
2:58 AM 46.8 °F - 45.9 °F 97% 30.10 in 5.0 mi West 10.4 mph - N/A   Overcast
3:17 AM 46.4 °F 41.1 °F 45.5 °F 97% 30.10 in 4.0 mi West 11.5 mph - N/A   Overcast
3:36 AM 46.0 °F 40.6 °F 45.0 °F 96% 30.11 in 10.0 mi West 11.5 mph 17.3 mph N/A   Overcast
3:55 AM 45.7 °F 39.5 °F 44.6 °F 96% 30.11 in 10.0 mi West 13.8 mph 18.4 mph N/A   Overcast
3:56 AM 45.7 °F 40.2 °F 44.6 °F 96% 30.11 in 10.0 mi West 11.5 mph 18.4 mph N/A   Overcast
4:15 AM 45.7 °F 39.8 °F 44.6 °F 96% 30.11 in 10.0 mi West 12.7 mph 19.6 mph N/A   Overcast
4:37 AM 45.5 °F 38.9 °F 43.9 °F 94% 30.13 in 10.0 mi West 15.0 mph 20.7 mph N/A   Overcast
4:56 AM 45.0 °F 38.5 °F 43.7 °F 95% 30.14 in 10.0 mi West 13.8 mph 17.3 mph N/A   Overcast
5:15 AM 44.6 °F 37.8 °F 42.3 °F 91% 30.14 in 10.0 mi WNW 15.0 mph 24.2 mph N/A   Overcast
5:16 AM 44.6 °F 37.8 °F 42.1 °F 91% 30.14 in 10.0 mi WNW 15.0 mph 24.2 mph N/A   Overcast
5:35 AM 44.1 °F 37.4 °F 41.9 °F 92% 30.15 in 10.0 mi West 13.8 mph 18.4 mph N/A   Overcast
5:36 AM 43.9 °F 37.2 °F 41.9 °F 93% 30.15 in 10.0 mi West 13.8 mph 18.4 mph N/A   Overcast
5:59 AM 43.5 °F 36.7 °F 41.2 °F 91% 30.16 in 10.0 mi West 13.8 mph 18.4 mph N/A   Mostly Cloudy
6:16 AM 43.7 °F 37.3 °F 41.4 °F 91% 30.17 in 10.0 mi West 12.7 mph 18.4 mph N/A   Mostly Cloudy
6:36 AM 43.7 °F 38.1 °F 39.9 °F 87% 30.18 in 10.0 mi WNW 10.4 mph 20.7 mph N/A   Overcast
6:55 AM 43.7 °F 38.1 °F 40.3 °F 88% 30.18 in 10.0 mi WNW 10.4 mph 16.1 mph N/A   Overcast
6:56 AM 43.7 °F 38.6 °F 40.3 °F 88% 30.19 in 10.0 mi WNW 9.2 mph 16.1 mph N/A   Overcast
7:15 AM 43.7 °F 38.1 °F 40.3 °F 88% 30.19 in 10.0 mi West 10.4 mph - N/A   Overcast
7:19 AM 43.7 °F 38.6 °F 40.3 °F 88% 30.19 in 10.0 mi WNW 9.2 mph - N/A   Overcast
7:38 AM 43.7 °F 39.1 °F 40.6 °F 89% 30.20 in 10.0 mi West 8.1 mph - N/A   Overcast
7:55 AM 43.7 °F 37.7 °F 40.5 °F 88% 30.21 in 10.0 mi WNW 11.5 mph - N/A   Overcast
8:15 AM 43.7 °F 38.1 °F 40.5 °F 88% 30.22 in 10.0 mi WNW 10.4 mph 18.4 mph N/A   Overcast
8:16 AM 43.7 °F 37.3 °F 40.5 °F 88% 30.22 in 10.0 mi WNW 12.7 mph 18.4 mph N/A   Overcast
8:35 AM 43.5 °F 37.1 °F 40.1 °F 88% 30.23 in 10.0 mi WNW 12.7 mph 16.1 mph N/A   Overcast
8:57 AM 43.7 °F 36.9 °F 39.2 °F 84% 30.23 in 10.0 mi WNW 13.8 mph 21.9 mph N/A   Overcast
9:16 AM 43.7 °F 37.7 °F 39.0 °F 84% 30.24 in 10.0 mi WNW 11.5 mph 19.6 mph N/A   Overcast
9:35 AM 43.7 °F 36.6 °F 38.5 °F 82% 30.24 in 10.0 mi WNW 15.0 mph 19.6 mph N/A   Overcast
9:36 AM 43.7 °F 36.6 °F 38.5 °F 82% 30.24 in 10.0 mi WNW 15.0 mph 19.6 mph N/A   Overcast
9:55 AM 43.7 °F 36.6 °F 38.1 °F 81% 30.25 in 10.0 mi WNW 15.0 mph 24.2 mph N/A   Overcast
9:56 AM 43.7 °F 37.3 °F 38.1 °F 81% 30.25 in 10.0 mi WNW 12.7 mph 24.2 mph N/A   Overcast
10:19 AM 43.9 °F 37.2 °F 38.3 °F 81% 30.26 in 10.0 mi WNW 13.8 mph 20.7 mph N/A   Overcast
10:36 AM 43.9 °F 37.2 °F 38.7 °F 82% 30.27 in 10.0 mi West 13.8 mph - N/A   Overcast
10:56 AM 44.2 °F 38.8 °F 38.3 °F 80% 30.28 in 10.0 mi WNW 10.4 mph - N/A   Overcast
11:15 AM 43.9 °F 38.3 °F 39.0 °F 83% 30.28 in 10.0 mi West 10.4 mph - N/A   Overcast
11:16 AM 43.9 °F 37.9 °F 39.2 °F 84% 30.28 in 10.0 mi West 11.5 mph - N/A   Overcast
11:35 AM 44.6 °F 38.8 °F 39.2 °F 81% 30.29 in 10.0 mi WNW 11.5 mph 16.1 mph N/A   Overcast
11:39 AM 44.6 °F 39.2 °F 39.0 °F 81% 30.29 in 10.0 mi WNW 10.4 mph 16.1 mph N/A   Overcast
11:58 AM 45.0 °F 38.9 °F 39.2 °F 80% 30.30 in 10.0 mi West 12.7 mph - N/A   Overcast
12:15 PM 45.5 °F 40.3 °F 39.2 °F 79% 30.30 in 10.0 mi WNW 10.4 mph - N/A   Overcast
12:35 PM 45.5 °F 39.6 °F 38.8 °F 78% 30.30 in 10.0 mi WNW 12.7 mph 19.6 mph N/A   Overcast
12:36 PM 45.5 °F 39.6 °F 38.8 °F 78% 30.30 in 10.0 mi NW 12.7 mph 19.6 mph N/A   Overcast
12:55 PM 45.5 °F 41.3 °F 38.5 °F 76% 30.31 in 10.0 mi NW 8.1 mph - N/A   Overcast
12:56 PM 45.5 °F 41.3 °F 38.8 °F 78% 30.31 in 10.0 mi NW 8.1 mph - N/A   Overcast
1:18 PM 45.5 °F 39.9 °F 39.2 °F 79% 30.31 in 10.0 mi NW 11.5 mph 17.3 mph N/A   Overcast
1:36 PM 45.5 °F 40.3 °F 39.4 °F 79% 30.32 in 10.0 mi West 10.4 mph 16.1 mph N/A   Overcast
1:55 PM 45.1 °F 38.8 °F 39.6 °F 81% 30.32 in 10.0 mi West 13.8 mph - N/A   Overcast
2:15 PM 46.4 °F 41.1 °F 39.0 °F 75% 30.32 in 10.0 mi NW 11.5 mph - N/A   Overcast
2:16 PM 46.4 °F 41.1 °F 39.0 °F 75% 30.32 in 10.0 mi NW 11.5 mph - N/A   Overcast
2:35 PM 45.9 °F 40.8 °F 38.8 °F 76% 30.32 in 10.0 mi NW 10.4 mph 18.4 mph N/A   Overcast
2:40 PM 46.2 °F 40.8 °F 39.2 °F 76% 30.32 in 10.0 mi WNW 11.5 mph - N/A   Overcast
2:57 PM 46.4 °F 41.1 °F 39.2 °F 76% 30.33 in 10.0 mi NW 11.5 mph - N/A   Overcast
3:15 PM 46.4 °F 41.1 °F 39.0 °F 75% 30.33 in 10.0 mi NW 11.5 mph 17.3 mph N/A   Overcast
3:36 PM 46.4 °F 41.5 °F 39.4 °F 77% 30.33 in 10.0 mi NW 10.4 mph - N/A   Overcast
3:55 PM 46.2 °F 41.2 °F 39.2 °F 76% 30.34 in 10.0 mi WNW 10.4 mph - N/A   Overcast
3:56 PM 46.0 °F 41.0 °F 39.2 °F 77% 30.34 in 10.0 mi WNW 10.4 mph - N/A   Overcast
4:18 PM 46.2 °F 42.2 °F 38.8 °F 75% 30.34 in 10.0 mi WNW 8.1 mph - N/A   Overcast
4:37 PM 46.0 °F 41.0 °F 38.7 °F 75% 30.35 in 10.0 mi NW 10.4 mph - N/A   Overcast
4:55 PM 45.9 °F 40.8 °F 38.8 °F 76% 30.35 in 10.0 mi NW 10.4 mph - N/A   Overcast
5:15 PM 45.5 °F 41.8 °F 38.5 °F 76% 30.36 in 10.0 mi NW 6.9 mph - N/A   Overcast
5:16 PM 45.5 °F 41.8 °F 38.5 °F 76% 30.36 in 10.0 mi NW 6.9 mph - N/A   Overcast
5:35 PM 45.5 °F 43.2 °F 38.8 °F 78% 30.36 in 10.0 mi NW 4.6 mph - N/A   Overcast
5:57 PM 45.1 °F 41.4 °F 38.8 °F 79% 30.37 in 10.0 mi NW 6.9 mph - N/A   Overcast
6:16 PM 45.1 °F 41.4 °F 38.8 °F 79% 30.37 in 10.0 mi NW 6.9 mph - N/A   Overcast
6:35 PM 44.8 °F 41.6 °F 38.8 °F 80% 30.38 in 10.0 mi NW 5.8 mph - N/A   Overcast
6:36 PM 44.8 °F 41.6 °F 38.8 °F 80% 30.38 in 10.0 mi NNW 5.8 mph - N/A   Overcast
6:55 PM 44.6 °F - 38.8 °F 80% 30.38 in 10.0 mi Calm Calm - N/A   Overcast
6:56 PM 44.6 °F 43.1 °F 38.8 °F 80% 30.38 in 10.0 mi NW 3.5 mph - N/A   Overcast
7:18 PM 44.6 °F 42.2 °F 38.8 °F 80% 30.38 in 10.0 mi NW 4.6 mph - N/A   Overcast
7:36 PM 44.2 °F 41.0 °F 38.8 °F 81% 30.38 in 10.0 mi NNW 5.8 mph - N/A   Overcast
7:55 PM 44.1 °F 40.1 °F 38.7 °F 81% 30.39 in 10.0 mi NNW 6.9 mph - N/A   Overcast
8:15 PM 43.9 °F 39.9 °F 38.3 °F 81% 30.39 in 10.0 mi North 6.9 mph - N/A   Overcast
8:16 PM 43.9 °F 39.9 °F 38.3 °F 81% 30.39 in 10.0 mi North 6.9 mph - N/A   Overcast
8:35 PM 43.9 °F 39.3 °F 37.9 °F 80% 30.40 in 10.0 mi NNW 8.1 mph - N/A   Overcast
8:39 PM 43.7 °F 40.3 °F 37.8 °F 80% 30.40 in 10.0 mi North 5.8 mph - N/A   Overcast
8:58 PM 43.7 °F 42.1 °F 37.6 °F 79% 30.40 in 10.0 mi North 3.5 mph - N/A   Overcast
9:15 PM 43.7 °F 40.3 °F 37.9 °F 80% 30.41 in 10.0 mi North 5.8 mph - N/A   Overcast
9:35 PM 43.7 °F 42.1 °F 37.4 °F 78% 30.40 in 10.0 mi NNW 3.5 mph - N/A   Overcast
9:36 PM 43.7 °F - 37.4 °F 78% 30.40 in 10.0 mi Calm Calm - N/A   Overcast
9:55 PM 43.7 °F - 37.8 °F 80% 30.41 in 10.0 mi Calm Calm - N/A   Overcast
10:18 PM 43.7 °F - 38.3 °F 81% 30.41 in 10.0 mi Calm Calm - N/A   Overcast
10:37 PM 43.7 °F - 37.9 °F 80% 30.41 in 10.0 mi Calm Calm - N/A   Overcast
10:55 PM 43.7 °F - 37.9 °F 80% 30.41 in 10.0 mi Calm Calm - N/A   Overcast
10:56 PM 43.7 °F - 38.1 °F 81% 30.41 in 10.0 mi Calm Calm - N/A   Overcast
11:15 PM 43.7 °F 42.1 °F 37.8 °F 80% 30.41 in 10.0 mi NNE 3.5 mph - N/A   Overcast
11:16 PM 43.7 °F 41.1 °F 37.9 °F 80% 30.41 in 10.0 mi NNE 4.6 mph - N/A   Overcast
11:35 PM 43.7 °F - 38.3 °F 81% 30.41 in 10.0 mi Calm Calm - N/A   Overcast
11:57 PM 43.7 °F - 37.9 °F 80% 30.42 in 10.0 mi Calm Calm - N/A   Overcast